Simultaneous Nadir Overpasses (SNOs) Predictions

Prediction of SNOs between AQUA and METOP-A Satellite Orbit:

Table of predicted SNOs for the next 14.0 days since TLE Epoch: 10/28/2011
Index Date Time (AQUA) AQUA Lat,Lon METOP-A Lat,Lon Distance(km) Time Diff (sec)
1 10/29/2011 00:09:02 72.24, 174.68 72.22, 168.76 200.77 53
2 10/29/2011 00:58:55 -73.71, -20.60 -73.71, -20.71 3.53 33
3 10/29/2011 01:48:25 73.82, 146.79 73.83, 146.91 3.68 34
4 10/29/2011 02:38:20 -75.33, -49.32 -75.29, -41.80 211.97 51
5 10/31/2011 19:43:27 72.20,-118.86 72.16,-124.95 207.18 52
6 10/31/2011 20:33:21 -73.71, 45.78 -73.70, 45.68 3.28 34
7 10/31/2011 21:22:50 73.77,-146.71 73.77,-146.82 3.43 35
8 10/31/2011 22:12:45 -75.28, 17.22 -75.24, 24.45 204.56 52
9 11/03/2011 15:17:52 71.83, -51.83 71.83, -59.18 254.80 46
10 11/03/2011 16:07:53 -73.71, 112.16 -73.73, 112.15 2.07 42
11 11/03/2011 16:57:22 73.77, -80.33 73.79, -80.36 3.02 27
12 11/03/2011 17:47:10 -74.91, 84.56 -74.88, 89.81 152.16 59
13 11/06/2011 10:52:13 70.95, 15.96 71.00, 5.76 369.48 28
14 11/06/2011 11:42:30 -73.69, 178.53 -73.68, 178.46 2.66 55
15 11/06/2011 12:31:59 73.75, -13.96 73.75, -14.05 2.88 14
16 11/06/2011 13:21:37 -74.38, 152.23 -74.35, 154.79 76.56 66
17 11/09/2011 07:17:13 -73.61,-114.98 -73.57,-115.40 13.99 72
18 11/09/2011 08:06:43 73.72, 52.41 73.73, 52.33 2.85 6
19 11/09/2011 08:56:11 -73.83,-140.18 -73.80,-140.19 3.58 67




NCC Satellite Simultaneous Nadir Overpasses (SNOs) Prediction Service
